Location: Biharia
(46.4333°N, 22.8000°E)
Time: 18:44:30
(UTC+00:00)

FENGYUN 1C DEB - Pass Details

Date: 10 August 2022
Orbit: 796 x 915 km, 98.9° (Epoch: 24 September)

Event Time Altitude Azimuth Distance (km) Brightness Sun altitude
Rises 00:58:56 0° 3° (N) 3,479 ? -19.9°
Reaches altitude 10° 01:02:01 10° 346° (NNW) 2,513 ? -19.6°
Maximum altitude 01:05:44 19° 304° (WNW) 1,935 ? -19.2°
Enters shadow 01:07:58 15° 275° (W) 2,137 ? -19.0°
